Location: Belfast
(54.5830°N, 5.9330°W)
Time: 02:49:01
(UTC+00:00)

ISS - Pass Details

Date: 30 January 2021
Orbit: 417 x 422 km, 51.6° (Epoch: 25 February)

Event Time Altitude Azimuth Distance (km) Brightness Sun altitude
Rises 17:44:33 0° 261° (W) 2,374 2.2 -6.8°
Reaches altitude 10° 17:46:41 10° 256° (WSW) 1,511 0.8 -7.1°
Maximum altitude 17:49:59 52° 180° (S) 535 -3.1 -7.6°
Drops below altitude 10° 17:53:18 10° 103° (ESE) 1,513 -1.4 -8.0°
Enters shadow 17:53:43 - 101° (E) 1,677 -1.2 -8.1°
